Date,TemperatureHighF,TemperatureAvgF,TemperatureLowF,DewpointHighF,DewpointAvgF,DewpointLowF,HumidityHigh,HumidityAvg,HumidityLow,PressureMaxIn,PressureMinIn,WindSpeedMaxMPH,WindSpeedAvgMPH,GustSpeedMaxMPH,PrecipitationSumIn
2013-9-1,83.3,75.6,69.6,74.1,71.0,68.0,96,87,69,29.75,29.66,12,3,12,0.00
2013-9-2,83.8,74.6,65.7,72.3,64.9,61.1,92,74,48,29.88,29.74,14,3,14,0.00
2013-9-3,78.0,67.1,58.1,61.9,59.0,55.5,96,77,52,30.02,29.88,11,2,12,0.00
2013-9-4,83.7,68.0,52.7,64.1,58.9,51.5,98,76,47,30.11,30.01,10,1,10,0.00
2013-9-5,86.3,71.5,56.4,66.7,61.7,54.9,98,75,45,30.14,30.06,8,1,8,0.00
2013-9-6,87.3,73.3,60.6,68.9,64.2,59.6,98,76,48,30.12,29.98,13,2,15,0.00
2013-9-7,88.6,76.2,64.1,71.1,66.7,62.1,95,75,48,29.99,29.85,17,3,18,0.01
2013-9-8,85.4,76.5,69.3,72.5,69.3,67.4,94,79,59,29.91,29.83,12,2,12,0.00
2013-9-9,95.0,81.4,69.5,76.6,72.7,67.8,97,77,49,29.89,29.82,15,4,15,0.00
2013-9-10,97.2,84.3,73.0,74.4,72.1,67.2,95,70,39,30.00,29.89,15,4,17,0.00
2013-9-11,93.7,82.5,71.8,72.0,69.1,64.1,94,67,39,30.04,29.92,17,4,18,0.00
2013-9-12,82.3,74.4,63.6,70.8,64.2,51.9,95,72,40,29.99,29.87,19,4,20,0.23
2013-9-13,71.5,62.9,53.8,58.4,51.9,45.7,94,70,42,30.08,29.97,15,4,18,0.00
2013-9-14,73.7,58.8,44.3,49.9,46.0,42.3,95,67,34,30.12,30.00,12,2,12,0.00
2013-9-15,77.1,64.5,50.6,60.8,52.3,45.8,90,67,41,30.04,29.93,17,4,21,0.00
2013-9-16,67.2,62.1,56.8,60.8,55.8,52.4,93,81,66,30.23,30.04,15,5,19,0.00
2013-9-17,74.5,62.8,50.0,58.1,54.1,48.3,96,75,49,30.23,30.04,13,3,19,0.00
2013-9-18,82.9,74.0,63.2,71.4,66.7,56.4,92,79,63,30.04,29.91,17,5,18,0.05
2013-9-19,90.0,79.3,71.1,73.3,71.0,68.5,95,77,54,29.94,29.77,21,7,21,0.01
2013-9-20,76.6,68.7,59.4,71.7,66.1,54.1,97,92,83,29.83,29.76,14,4,16,1.07
2013-9-21,70.3,60.3,52.0,56.1,52.1,49.6,93,77,49,29.87,29.79,17,4,17,0.01
2013-9-22,72.8,59.1,46.5,53.0,49.6,45.1,97,74,42,29.98,29.87,10,1,13,0.00
2013-9-23,74.9,59.6,45.6,52.4,48.1,43.9,96,70,36,30.02,29.92,16,3,18,0.00
2013-9-24,78.4,63.6,47.3,62.3,55.0,45.6,96,76,52,29.94,29.78,15,2,15,0.01
2013-9-25,82.8,69.2,58.0,64.7,60.7,56.5,97,77,46,29.84,29.77,11,1,12,0.00
2013-9-26,82.0,67.0,53.6,63.0,55.0,49.8,94,69,37,29.98,29.83,10,1,11,0.00
2013-9-27,81.2,64.7,48.8,60.5,53.4,47.3,97,71,40,30.09,29.97,16,2,23,0.00
2013-9-28,82.3,69.2,55.0,64.8,58.0,52.1,94,70,45,30.03,29.89,28,6,30,0.00
2013-9-29,74.8,64.4,51.2,62.8,54.7,48.6,95,74,42,29.98,29.90,14,3,15,0.16
2013-9-30,75.3,63.1,50.7,63.4,58.9,48.4,98,88,62,29.94,29.85,14,3,17,0.01